Dewpoint
11 11 12 14 14 14 14 14 15 15 15 15 15 15 15 15 16 16 16 15 14 13 13 13 13 14 13 13 14 14 15 15 15 14 13 12 13 13 13 13 13 13
10 10 11 12 14 14 14 14 14 14 14 15 15 14 14 15 16 16 16 16 15 14 13 13 13 13 14 14 14 14 15 15 15 14 13 12 13 13 13 13 12 13
9 10 10 11 12 13 13 14 14 14 14 14 14 14 14 15 15 15 16 16 15 15 14 13 13 13 13 14 14 14 15 15 15 14 13 13 13 13 13 13 12 12
9 9 9 10 11 12 13 13 14 14 14 14 14 14 14 14 14 15 15 15 15 15 14 14 13 13 13 14 14 14 14 14 15 15 14 14 13 13 12 12 12 12
9 9 9 9 10 12 13 13 13 13 14 14 14 13 13 14 14 14 14 14 15 16 15 14 13 13 13 14 13 14 14 14 14 14 15 14 14 13 13 12 12 12
8 9 9 9 9 11 12 12 12 13 13 14 14 14 14 14 14 13 13 14 14 15 15 15 15 14 14 13 13 13 13 14 14 14 14 14 14 14 13 13 13 13
7 7 7 8 8 9 9 10 11 11 12 13 13 13 14 14 14 14 13 13 14 14 15 15 15 15 15 14 13 12 13 13 13 13 14 14 14 14 14 13 13 13
8 7 6 7 7 7 7 8 8 8 10 10 11 13 14 14 14 15 14 13 13 14 15 16 16 16 16 15 14 12 12 12 12 13 13 13 13 14 14 14 14 13
11 10 9 8 8 8 8 8 7 7 7 8 9 11 13 14 14 15 15 14 13 13 15 16 16 16 16 16 15 14 13 12 12 12 12 13 13 13 14 14 14 14
13 13 13 12 11 9 9 10 9 8 6 6 7 9 11 12 13 15 15 14 13 13 14 15 16 16 16 16 16 15 14 13 13 12 12 12 12 12 13 13 14 14
13 14 14 13 13 12 11 11 11 10 7 7 7 8 10 11 12 12 13 14 14 13 14 14 15 16 16 16 16 16 15 15 14 13 12 12 11 11 11 12 12 13
13 14 14 14 14 14 13 13 12 11 9 7 7 8 10 11 11 10 10 12 13 14 14 14 15 15 15 15 16 16 15 15 15 14 13 13 12 12 11 11 11 11
14 14 15 15 15 15 15 14 14 13 10 9 8 9 9 10 10 10 9 10 11 13 14 14 15 15 15 15 16 16 15 15 15 15 15 14 13 13 13 12 12 11
14 15 15 15 15 15 15 15 15 14 12 10 9 9 10 11 11 11 10 10 11 14 14 14 15 15 16 16 16 16 15 15 15 15 15 15 15 14 14 13 13 13
14 14 14 15 15 15 15 15 15 15 14 12 9 9 10 12 13 13 12 11 13 14 15 15 15 15 15 16 16 16 16 15 15 15 15 15 15 15 14 14 14 14
14 14 14 15 15 15 15 15 15 16 16 14 11 10 11 13 13 13 13 13 13 14 15 15 15 15 15 15 15 15 15 15 15 15 15 15 15 15 15 15 14 14
15 15 15 15 15 15 15 14 14 15 16 15 14 13 14 15 14 14 14 14 14 14 15 15 15 15 14 14 14 14 14 15 15 15 15 15 15 15 15 15 15 15
16 16 16 16 16 15 15 15 15 15 16 15 15 15 15 16 15 15 15 15 15 15 15 15 15 15 14 14 14 14 14 14 14 14 14 15 15 15 15 15 15 15
16 16 16 16 16 17 17 16 16 16 16 16 16 16 16 15 15 15 15 15 16 16 16 16 16 15 15 15 14 14 14 14 14 14 14 14 14 14 14 14 14 14
16 16 16 16 16 17 17 17 17 17 16 16 16 16 16 15 15 14 14 15 16 17 17 17 16 16 16 15 14 14 14 14 14 14 14 14 14 14 14 14 14 13
16 16 16 16 16 16 17 17 17 17 17 17 17 16 16 15 15 14 14 15 16 17 17 17 17 17 16 16 15 14 13 14 14 14 14 13 14 14 13 13 13 13
16 16 16 16 16 16 16 17 17 17 17 17 17 16 16 16 15 15 15 15 16 17 17 17 17 17 17 16 15 15 14 14 14 14 14 14 14 14 13 14 14 13
14 14 14 15 15 15 16 16 17 17 17 17 16 16 16 16 16 16 16 16 16 17 17 17 17 17 17 16 16 15 15 15 15 15 15 15 14 14 14 14 14 14
13 13 14 14 14 14 14 15 15 15 15 15 15 16 16 16 16 16 16 16 16 17 17 17 17 17 17 16 16 16 16 16 15 16 16 16 15 15 15 14 14 14
10 10 11 11 11 11 12 13 13 13 13 13 14 14 14 15 15 15 16 16 16 16 16 16 17 16 17 17 17 16 16 16 16 16 16 16 16 16 16 16 15 15
6 6 6 7 8 8 9 10 10 10 10 11 11 12 12 13 13 14 14 14 15 15 15 15 16 16 16 16 16 16 16 16 16 16 16 16 16 16 16 16 16 16
Wind_Speed
15 15 15 16 15 13 10 9 8 8 8 7 6 4 3 2 2 2 2 3 4 5 5 5 5 6 6 6 5 5 4 4 5 5 5 4 4 5 5 5 5 5
16 16 16 16 17 15 12 10 9 8 7 7 7 6 5 4 4 3 3 3 4 5 5 6 6 6 6 6 6 5 5 5 4 5 5 5 5 5 5 6 6 6
17 17 17 16 16 16 14 12 10 9 8 8 8 7 6 5 5 4 3 3 4 4 5 6 6 6 6 6 6 6 6 5 5 5 5 5 6 6 6 6 7 6
18 17 17 17 16 15 15 13 12 11 9 8 8 8 7 6 5 5 4 4 4 5 5 6 6 6 6 6 6 6 6 6 6 6 6 6 6 6 7 7 7 7
18 18 18 17 16 16 16 15 13 12 11 10 9 9 9 8 7 7 5 5 5 5 5 5 6 6 6 6 6 6 6 6 6 7 7 6 6 6 6 7 7 8
18 18 18 18 17 17 16 16 14 13 13 12 11 10 10 9 9 8 7 6 6 6 6 6 6 6 6 6 6 6 6 6 6 7 7 6 6 6 6 7 7 7
18 18 18 18 17 17 17 16 15 14 14 13 12 12 11 11 10 9 8 8 7 8 8 7 7 6 6 7 7 7 6 6 6 7 6 6 6 6 6 7 7 7
17 17 18 18 18 18 17 16 16 15 15 14 14 13 12 12 10 9 9 9 9 9 8 8 7 7 7 7 7 7 6 7 7 7 7 7 6 6 7 7 7 7
17 17 17 17 18 19 18 17 17 16 16 15 15 14 14 12 11 10 9 9 9 10 9 9 8 7 7 7 6 6 6 7 7 8 8 8 8 7 7 8 8 8
19 18 17 16 17 18 18 18 18 18 17 16 16 15 15 13 12 11 10 10 10 10 11 10 9 9 8 7 6 6 6 6 7 8 8 9 9 8 8 8 8 8
21 20 20 18 17 17 17 18 18 19 18 17 17 17 15 14 13 13 12 11 10 11 11 12 11 10 10 9 8 7 6 6 7 8 9 9 9 9 9 9 9 9
20 20 21 20 19 18 17 18 18 18 18 18 18 17 16 15 14 14 14 13 13 12 13 13 12 12 12 11 9 8 8 7 7 7 8 9 9 10 10 10 10 9
20 19 20 21 20 19 18 18 19 19 19 19 19 18 17 17 16 16 15 15 14 14 14 14 13 13 13 12 11 10 9 8 8 7 7 8 9 10 11 11 11 10
23 21 20 21 21 19 18 18 19 19 19 19 19 18 17 17 16 15 15 15 15 14 13 14 14 14 13 12 12 11 11 10 9 9 8 8 8 9 10 11 11 11
25 23 22 22 22 21 19 18 18 19 19 20 20 19 18 17 16 15 14 14 15 14 14 13 14 14 14 13 13 12 12 12 11 11 10 10 9 9 9 10 10 10
24 24 24 24 24 22 19 18 19 20 20 20 20 20 19 17 17 15 15 14 15 15 15 14 14 14 14 14 14 14 14 14 13 13 12 11 11 10 10 10 10 10
22 23 25 26 25 24 21 20 20 21 21 21 20 19 18 17 16 16 15 15 15 16 16 16 16 16 15 14 15 15 16 16 15 14 14 13 12 12 12 11 11 10
22 23 25 24 24 25 23 21 21 22 22 21 20 19 18 17 17 17 16 16 16 16 17 17 18 17 16 15 15 15 16 17 17 17 16 15 14 13 13 13 12 12
19 21 22 22 21 23 23 22 22 22 22 21 20 20 19 18 18 17 17 16 16 17 18 19 19 18 17 17 16 16 16 17 18 18 17 16 15 14 14 14 14 14
13 13 15 17 19 22 22 23 23 23 22 21 20 20 19 19 18 18 17 16 16 17 18 20 20 19 19 19 17 16 17 17 18 19 19 18 17 16 15 15 15 15
16 16 17 18 19 19 19 20 20 20 19 18 18 18 17 17 17 18 18 17 17 17 17 19 21 20 20 19 17 16 16 17 18 19 19 20 19 18 17 16 16 16
13 14 16 17 16 15 15 15 14 14 14 14 14 14 13 13 14 16 16 16 16 17 17 18 19 19 19 19 18 17 17 17 17 18 19 20 20 19 19 18 18 18
6 6 7 8 8 9 11 11 10 10 10 10 10 10 10 10 11 12 13 13 14 15 15 15 16 17 18 19 19 19 19 18 18 17 17 18 19 20 20 20 20 20
4 4 3 4 5 6 7 8 8 8 8 8 8 9 9 9 9 10 11 12 13 14 14 14 16 17 19 20 20 20 20 20 19 17 17 17 18 19 20 20 20 21
5 5 4 4 5 5 5 5 5 6 6 6 7 7 8 9 9 10 10 12 14 15 14 15 17 18 19 20 20 21 21 21 20 19 18 18 18 17 18 19 20 21
5 5 5 4 4 4 4 4 4 4 4 5 5 5 6 7 7 7 8 10 11 12 12 13 14 15 16 16 17 19 19 20 21 21 21 21 20 18 18 18 19 20
Wind_Direction
218 216 213 213 211 210 211 210 211 216 220 221 220 215 203 198 220 250 269 258 251 245 237 233 226 224 224 223 223 228 239 252 258 262 260 258 258 251 249 254 257 251
221 220 219 218 217 218 219 217 213 212 216 221 225 225 225 228 231 240 266 264 256 251 243 237 232 232 235 238 238 237 242 246 251 256 255 252 254 251 252 256 259 253
225 223 223 222 222 221 222 222 219 215 217 221 224 224 226 235 241 245 259 262 256 255 250 243 237 237 242 245 246 243 245 246 244 246 250 255 255 251 250 253 257 255
226 226 225 225 225 223 223 226 227 226 228 230 230 228 226 234 249 253 258 261 255 256 256 248 240 241 246 249 250 248 249 247 242 242 247 253 254 252 250 251 254 252
228 228 227 228 227 227 228 230 231 233 237 242 245 241 235 235 244 250 254 256 254 256 258 250 243 245 250 253 255 255 254 249 241 240 241 243 248 252 253 254 255 253
229 229 229 230 230 231 234 236 237 238 242 247 250 248 243 238 238 242 245 246 247 250 251 246 242 246 253 258 260 259 257 252 246 241 238 240 245 249 253 256 257 259
229 228 228 230 231 233 235 238 240 242 244 246 247 246 242 239 237 236 238 239 240 241 242 239 236 239 248 255 259 259 258 256 256 254 251 249 248 248 249 251 255 260
231 230 230 230 231 233 234 237 239 240 243 244 243 241 239 239 238 236 236 237 235 233 231 230 229 232 239 247 252 255 256 257 260 262 263 262 257 252 250 252 257 261
238 235 233 233 234 235 236 238 240 241 241 241 241 239 238 239 239 238 239 238 233 229 226 226 226 227 235 245 251 254 255 255 257 260 263 265 263 257 253 256 260 262
242 244 242 240 238 239 240 242 244 244 243 241 240 239 239 240 240 240 242 241 235 230 228 229 229 228 235 245 254 261 262 259 256 257 260 262 263 261 259 259 261 263
236 245 248 248 245 244 244 245 247 247 244 242 241 240 241 243 242 241 241 241 239 234 231 232 232 232 237 242 249 260 267 267 261 258 260 262 263 262 261 261 261 264
237 244 248 249 247 245 244 242 242 243 242 240 239 241 243 245 246 246 244 242 241 239 236 234 233 234 238 241 246 252 259 264 264 263 262 262 262 262 262 262 263 264
240 242 245 246 245 244 245 243 240 238 237 236 236 239 243 246 248 249 248 245 242 241 240 239 235 235 237 240 244 249 252 252 255 263 267 265 263 262 262 262 263 264
243 243 244 245 244 244 243 243 241 239 236 235 235 236 239 243 245 248 248 245 241 240 242 243 240 237 237 239 241 247 250 249 249 254 262 268 269 266 263 263 264 265
245 245 247 249 250 248 241 234 237 241 240 237 235 233 234 237 238 241 244 243 240 241 243 244 244 243 242 241 242 246 250 253 253 254 258 263 267 266 266 265 266 268
244 244 245 246 247 246 238 228 230 239 241 237 234 232 233 236 237 237 238 240 242 244 246 248 248 247 244 242 241 241 243 247 251 255 258 261 264 264 265 266 268 272
241 241 241 240 238 236 231 223 224 232 236 235 232 230 233 236 239 238 237 240 243 247 251 253 254 253 249 246 242 239 236 236 239 246 252 257 262 264 264 265 268 271
237 237 236 235 233 230 225 219 220 226 230 231 231 231 231 233 236 238 239 241 245 249 253 256 257 257 255 253 248 243 239 237 237 240 246 253 259 264 264 264 266 268
237 238 236 234 230 225 219 215 217 223 227 231 233 233 233 232 233 236 240 244 249 252 256 258 259 259 259 256 251 245 243 242 242 244 247 253 259 264 266 265 266 267
210 214 218 219 219 218 216 216 218 221 225 229 232 233 234 235 236 240 245 249 253 256 258 259 260 261 261 259 255 250 247 247 247 248 249 253 257 261 264 266 267 269
182 183 183 187 194 199 203 210 217 220 222 226 230 233 236 238 242 248 251 252 255 257 257 258 260 261 262 261 259 256 253 252 251 251 252 254 256 258 261 264 267 269
177 180 181 181 182 182 184 195 207 214 217 220 225 232 237 238 241 246 250 252 253 253 252 254 256 257 258 259 259 257 256 255 254 253 254 256 257 259 262 266 269 271
153 160 170 166 160 162 171 183 195 204 209 213 220 231 239 241 240 241 243 246 248 249 249 250 252 253 253 255 257 256 256 256 255 254 255 256 258 261 264 268 272 274
111 106 107 106 120 141 157 171 186 197 203 206 216 228 235 237 237 238 241 245 248 249 249 248 250 252 252 252 254 255 256 257 257 256 257 259 261 262 264 268 271 274
108 106 110 117 132 142 149 165 182 192 196 201 209 217 223 228 227 227 230 235 241 244 244 244 247 251 252 252 253 254 255 255 256 257 257 260 262 264 266 267 269 272
120 118 120 133 140 139 149 171 183 190 193 196 201 206 218 225 220 214 217 225 233 238 239 240 246 251 255 257 258 259 258 256 255 255 255 258 262 265 267 268 269 270
Height
1606 1607 1608 1610 1611 1612 1614 1615 1616 1617 1618 1618 1619 1620 1620 1621 1621 1621 1622 1622 1623 1623 1623 1624 1624 1624 1625 1625 1626 1626 1627 1628 1628 1628 1628 1628 1629 1629 1629 1630 1630 1630
1605 1606 1607 1609 1610 1612 1613 1614 1615 1616 1617 1618 1619 1619 1620 1621 1621 1621 1622 1622 1622 1623 1623 1623 1624 1624 1625 1625 1625 1626 1626 1627 1627 1628 1628 1628 1628 1629 1629 1629 1629 1630
1603 1605 1606 1608 1609 1611 1612 1613 1614 1615 1616 1617 1618 1619 1619 1620 1620 1621 1621 1621 1622 1622 1622 1623 1623 1624 1624 1625 1625 1626 1626 1626 1627 1627 1627 1627 1628 1628 1628 1629 1629 1629
1602 1604 1605 1607 1608 1610 1611 1612 1613 1614 1615 1616 1617 1618 1618 1619 1620 1620 1621 1621 1621 1622 1622 1622 1623 1623 1624 1624 1624 1625 1625 1626 1626 1626 1626 1627 1627 1628 1628 1628 1628 1628
1601 1603 1604 1606 1607 1609 1610 1611 1612 1613 1614 1615 1616 1617 1617 1618 1619 1619 1620 1620 1620 1621 1621 1622 1622 1623 1623 1623 1624 1624 1624 1625 1625 1625 1626 1626 1626 1627 1627 1627 1627 1628
1600 1602 1603 1605 1606 1607 1609 1610 1611 1612 1613 1614 1615 1615 1616 1617 1617 1618 1619 1619 1620 1620 1621 1621 1622 1622 1623 1623 1623 1624 1624 1624 1625 1625 1625 1625 1625 1626 1626 1626 1627 1627
1599 1600 1602 1603 1604 1606 1607 1608 1609 1610 1612 1613 1613 1614 1615 1615 1616 1617 1617 1618 1619 1619 1620 1621 1621 1622 1622 1622 1623 1623 1623 1624 1624 1624 1624 1625 1625 1625 1625 1626 1626 1626
1598 1599 1600 1602 1603 1604 1606 1607 1608 1609 1610 1611 1612 1613 1613 1614 1615 1615 1616 1617 1617 1618 1619 1620 1620 1621 1621 1621 1622 1622 1622 1623 1623 1623 1624 1624 1624 1624 1624 1625 1625 1625
1597 1598 1599 1600 1601 1603 1604 1605 1606 1607 1608 1609 1610 1611 1612 1613 1613 1614 1615 1615 1616 1617 1618 1619 1620 1620 1621 1621 1621 1621 1622 1622 1622 1623 1623 1623 1623 1624 1624 1624 1624 1624
1594 1596 1598 1599 1600 1602 1603 1604 1605 1606 1607 1608 1609 1610 1610 1611 1612 1613 1613 1614 1615 1616 1616 1617 1618 1619 1620 1620 1620 1621 1621 1621 1621 1621 1622 1622 1622 1623 1623 1623 1623 1623
1591 1594 1596 1597 1599 1600 1601 1603 1604 1605 1605 1606 1607 1608 1609 1610 1610 1611 1612 1613 1613 1614 1615 1616 1617 1617 1618 1619 1619 1620 1620 1620 1620 1620 1621 1621 1621 1621 1621 1622 1622 1622
1589 1591 1593 1595 1597 1598 1599 1601 1602 1603 1604 1604 1605 1606 1607 1608 1609 1609 1610 1611 1612 1612 1613 1614 1615 1615 1616 1617 1618 1618 1619 1619 1619 1619 1620 1620 1620 1620 1620 1620 1620 1621
1587 1589 1591 1592 1594 1595 1597 1598 1599 1600 1601 1602 1603 1604 1605 1606 1607 1607 1608 1608 1610 1610 1611 1612 1613 1613 1614 1615 1616 1617 1617 1618 1618 1618 1619 1619 1619 1619 1619 1619 1619 1619
1585 1587 1588 1590 1592 1593 1594 1595 1597 1599 1599 1600 1601 1601 1603 1604 1604 1605 1606 1606 1608 1608 1609 1610 1611 1612 1612 1613 1614 1615 1615 1616 1617 1617 1617 1617 1618 1618 1618 1618 1618 1618
1583 1585 1587 1589 1590 1591 1592 1592 1595 1597 1598 1598 1599 1599 1600 1601 1602 1603 1603 1604 1605 1606 1607 1608 1609 1610 1611 1611 1612 1613 1614 1614 1615 1615 1616 1616 1616 1616 1616 1616 1616 1617
1579 1582 1584 1586 1588 1589 1589 1590 1592 1594 1596 1597 1597 1597 1598 1599 1600 1600 1601 1602 1603 1604 1606 1606 1607 1608 1608 1609 1610 1611 1611 1612 1612 1613 1614 1614 1614 1614 1615 1615 1615 1615
1577 1578 1579 1581 1584 1586 1586 1587 1589 1591 1594 1595 1595 1595 1596 1597 1598 1598 1599 1600 1601 1602 1604 1604 1605 1605 1606 1607 1608 1608 1609 1609 1610 1610 1611 1612 1612 1612 1613 1613 1613 1613
1575 1575 1576 1578 1580 1582 1583 1584 1586 1589 1591 1592 1593 1593 1594 1594 1595 1596 1597 1597 1598 1600 1601 1602 1603 1603 1604 1605 1605 1606 1607 1607 1607 1608 1608 1609 1610 1610 1610 1610 1611 1611
1573 1573 1574 1575 1577 1579 1580 1582 1584 1586 1588 1590 1590 1591 1591 1592 1592 1593 1594 1595 1596 1598 1599 1600 1600 1601 1602 1602 1603 1603 1604 1605 1605 1606 1606 1607 1607 1608 1608 1608 1608 1608
1570 1570 1571 1573 1574 1575 1578 1579 1582 1584 1586 1587 1587 1588 1589 1590 1590 1591 1591 1592 1594 1596 1597 1597 1597 1598 1599 1599 1600 1601 1602 1602 1603 1604 1605 1605 1605 1606 1606 1606 1606 1606
1567 1568 1570 1571 1572 1573 1575 1577 1580 1582 1584 1584 1585 1585 1586 1587 1588 1588 1589 1590 1591 1594 1595 1595 1595 1596 1596 1597 1598 1598 1599 1600 1601 1601 1602 1603 1603 1603 1603 1604 1604 1604
1567 1568 1569 1569 1570 1571 1573 1576 1578 1580 1581 1582 1582 1583 1584 1585 1585 1586 1586 1587 1589 1591 1593 1594 1593 1594 1594 1594 1595 1595 1596 1597 1598 1598 1599 1600 1600 1601 1601 1602 1602 1602
1568 1569 1569 1569 1569 1570 1572 1574 1576 1578 1579 1580 1581 1581 1582 1582 1583 1584 1584 1586 1587 1590 1591 1592 1592 1591 1591 1591 1592 1593 1593 1594 1595 1595 1596 1597 1597 1598 1599 1599 1599 1599
1568 1568 1569 1570 1571 1571 1572 1574 1575 1577 1578 1578 1579 1580 1580 1581 1582 1582 1583 1585 1586 1588 1589 1590 1589 1589 1589 1589 1589 1590 1590 1591 1592 1593 1593 1594 1594 1595 1596 1596 1596 1596
1568 1569 1570 1571 1572 1572 1573 1574 1575 1575 1576 1577 1578 1578 1579 1580 1580 1581 1582 1583 1584 1586 1587 1587 1587 1586 1586 1586 1587 1587 1588 1588 1589 1590 1590 1591 1592 1592 1593 1593 1593 1593
1570 1571 1571 1572 1572 1573 1573 1574 1574 1575 1575 1576 1577 1577 1578 1578 1579 1580 1580 1581 1583 1584 1584 1585 1584 1584 1584 1585 1585 1585 1586 1586 1587 1587 1588 1588 1589 1590 1590 1590 1591 1591